Location: Chavannes
(47.1090°N, 0.2226°W)
Time: 13:59:36
(UTC+00:00)

Cosmos 494 Rocket - Pass Details

Date: 16 October 2021
Orbit: 743 x 770 km, 74.1° (Epoch: 02 December)

Event Time Altitude Azimuth Distance (km) Brightness Sun altitude
Rises 17:44:49 0° 340° (NNW) 3,244 7.4 -6.4°
Reaches altitude 10° 17:47:15 10° 344° (NNW) 2,310 6.6 -6.8°
Maximum altitude 17:52:25 60° 64° (ENE) 874 4.0 -7.7°
Drops below altitude 10° 17:57:31 10° 144° (SE) 2,277 6.2 -8.6°
Sets 17:59:54 0° 149° (SSE) 3,193 6.9 -9.0°
